#timestamp,LO_Frequency,Hit,StdDev 
1605686415.3,286025816.2,N
1605686435.1,286025816.2,N
1605686455.9,286025815.7,N
1605686475.7,286025815.6,N
1605686495.5,286025818.2,Y
1605686515.4,286047001.8,P
1605686535.2,286047001.6,N
1605686555.0,286047001.6,N
1605686555.9,286047001.6,N
1605686575.8,286047001.9,N
1605686595.6,286047002.4,N
1605686615.4,286047004.4,N
1605686635.3,286047004.0,N
1605686655.1,286047003.1,N
1605686675.8,286047001.4,N
1605686695.7,286047004.1,N
1605686715.5,286047003.9,N
1605686735.3,286047003.8,N
1605686755.2,286047003.7,N
1605686775.0,286047004.2,N
1605686775.9,286047004.2,N
1605686795.7,286047003.6,N
1605686815.6,286047003.1,N
1605686835.4,286047003.4,N
1605686855.2,286047005.4,N
1605686875.1,286047005.5,N
1605686876.0,286047005.5,N
1605686895.8,286047005.4,N
1605686915.6,286047005.3,N
1605686935.5,286047005.3,N
1605686955.3,286047005.0,N
1605686975.1,286047004.7,N
1605686995.9,286047005.2,N
1605687015.7,286047004.8,N
1605687035.5,286047005.3,N
1605687055.4,286047004.5,Y
1605687075.2,286047001.5,P
1605687095.0,286047001.6,N
1605687095.9,286047001.6,N
1605687115.8,286047001.4,N
1605687135.6,286047004.4,Y
1605687155.4,286047000.0,P
1605687175.3,286047002.3,N
1605687195.1,286047002.6,N
1605687215.8,286047002.5,N
1605687235.7,286047002.3,N
1605687255.5,286047004.4,Y
1605687275.3,286047000.5,P
1605687295.2,286047000.4,N
1605687315.9,286047000.5,N
1605687335.7,286046999.7,N
1605687355.6,286047000.3,N
1605687375.4,286047000.8,N
1605687395.2,286046999.9,N
1605687415.1,286047002.8,Y
1605687416.0,286047002.8,P
1605687435.8,286047002.2,N
1605687455.6,286047002.3,N
1605687475.5,286047001.3,N
1605687495.3,286047004.3,Y
1605687515.1,286046999.8,P
1605687535.9,286047001.1,N
1605687555.7,286047000.5,N
1605687575.5,286047002.4,Y
1605687595.4,286047000.7,P
1605687615.2,286047000.7,P
1605687635.0,286047000.4,P
1605687635.9,286047000.4,N
1605687655.8,286047000.3,N
1605687675.6,286047000.1,N
1605687695.4,286047000.0,N
1605687715.3,286047000.9,Y
1605687735.1,286047000.6,P
1605687755.8,286046999.9,N
1605687775.7,286047000.3,N
1605687795.5,286046999.7,N
1605687815.3,286047000.2,N
1605687835.2,286046999.7,N
1605687855.9,286047000.4,N
1605687875.7,286047002.8,Y
1605687895.6,286047000.3,P
1605687915.4,286047000.0,N
1605687935.2,286047000.1,N
1605687955.1,286046999.8,N
1605687956.0,286046999.8,N
1605687975.8,286046999.8,N
1605687995.6,286047000.1,N
1605688015.5,286046999.7,N
1605688035.3,286046999.7,N
1605688055.1,286047000.6,N
1605688075.9,286047000.1,N
1605688095.7,286047002.2,Y
1605688115.5,286046999.8,P
1605688135.4,286047002.8,P
1605688155.2,286046999.8,N
1605688175.0,286047002.1,N
1605688175.9,286047002.1,N
1605688195.8,286047011.9,Y
1605688215.6,286047000.8,P
1605688235.4,286047000.7,P
1605688255.3,286047000.7,P
1605688275.1,286047001.2,Y
1605688295.8,286046999.4,P
1605688315.7,286046999.3,N
1605688335.5,286046999.5,N
1605688355.3,286046998.7,N
1605688375.2,286047001.0,N
1605688395.9,286047000.7,N
1605688415.7,286046998.7,N
1605688435.6,286046998.4,N
1605688455.4,286046998.2,N
1605688475.2,286046998.6,N
1605688495.1,286046998.2,N
1605688496.0,286046998.2,N
1605688515.8,286046998.2,N
1605688535.6,286046999.0,N
1605688555.5,286046999.2,N
1605688575.3,286046999.0,N
1605688595.1,286046997.0,Y
1605688615.9,286046999.0,P
1605688635.7,286046998.8,P
1605688655.5,286046998.7,P
1605688675.4,286046998.8,Y
1605688695.2,286047000.4,P
1605688715.0,286047000.1,N
1605688715.9,286047000.1,N
1605688735.8,286047001.2,N
1605688755.6,286046998.7,N
1605688775.4,286046998.4,N
1605688795.3,286046999.5,N
1605688815.1,286046998.4,N
1605688816.0,286046998.4,N
1605688835.8,286046999.3,N
1605688855.7,286046998.8,N
1605688875.5,286046998.7,N
1605688895.3,286046999.4,N
1605688915.2,286046996.6,Y
1605688935.9,286046999.3,P
1605688955.7,286046999.3,P
1605688975.6,286046999.2,P
1605688995.4,286046997.8,Y
1605689015.2,286046999.0,P
1605689035.1,286046996.5,P
1605689036.0,286046996.5,N
1605689055.8,286046997.1,N
1605689075.6,286046997.7,N
1605689095.5,286046997.8,N
1605689115.3,286046997.7,N
1605689135.1,286046997.5,N
1605689155.8,286046997.8,N
1605689175.7,286046997.8,N
1605689195.5,286046997.9,N
1605689215.3,286046995.7,Y
1605689235.2,286046997.0,P
1605689255.0,286046999.6,N
1605689255.9,286046999.6,N
1605689275.7,286046996.9,N
1605689295.6,286046997.3,N
1605689315.4,286046999.2,N
1605689335.2,286046996.5,Y
1605689355.1,286046998.8,P
1605689356.0,286046998.8,P
1605689375.8,286046999.1,P
1605689395.6,286046998.7,Y
1605689415.5,286046998.5,P
1605689435.3,286046998.9,P
1605689455.1,286046999.6,N
1605689475.9,286046999.3,N
1605689495.7,286046998.9,N
1605689515.5,286046998.7,Y
1605689535.4,286047001.2,P
1605689555.2,286047001.1,N
1605689575.0,286046998.5,N
1605689575.9,286046998.5,N
1605689595.8,286046999.3,N
1605689615.6,286046999.1,N
1605689635.4,286046998.8,N
1605689655.3,286046999.6,N
1605689675.1,286046997.3,N
1605689695.8,286046999.6,N
1605689715.7,286046996.6,Y
1605689735.5,286046998.4,P
1605689755.3,286046999.2,N
1605689775.2,286046996.7,P
1605689795.0,286046997.8,N
1605689795.9,286046997.8,N
1605689815.7,286046997.5,N
1605689835.6,286046997.4,Y
1605689855.4,286046999.4,P
1605689875.2,286046999.4,N
1605689895.1,286046999.6,N
1605689896.0,286046999.6,N
1605689915.8,286046999.1,N
1605689935.6,286046996.9,Y
1605689955.5,286046998.7,P
1605689975.3,286046998.1,P
1605689995.1,286046996.6,P
